KLM740 FOOL-FNLU

Flight info

Callsign KLM740
Flight time 1h 59m
Altitude 39000
Route PILVI1S PILVI UR526 EXITO R526 EPLAT
Aircraft B772/H-SDE2E3FGHIJ5LORVWXY/LB1D1

Departure

Time 2026-04-16 11:09
Airport Libreville Leon M'ba International Airport (FOOL)

Arrival

Time 2026-04-16 13:08
Airport Quatro de Fevereiro International Airport (FNLU)
Time Latitude Longitude Altitude Speed Heading
2026-04-16 11:05 0.47056 9.40654 40 ft 0 kts 154°
2026-04-16 11:08 0.47051 9.40656 42 ft 10 kts 154°
2026-04-16 11:08 0.46726 9.40815 42 ft 93 kts 155°
2026-04-16 11:09 0.45921 9.41214 52 ft 158 kts 153°
2026-04-16 11:09 0.44795 9.41756 374 ft 196 kts 154°
2026-04-16 11:09 0.43494 9.42326 1005 ft 211 kts 158°
2026-04-16 11:09 0.42086 9.42852 1661 ft 221 kts 157°
2026-04-16 11:10 0.40619 9.43479 2162 ft 240 kts 156°
2026-04-16 11:10 0.39029 9.44154 2530 ft 257 kts 157°
2026-04-16 11:10 0.37353 9.44836 2816 ft 262 kts 158°
2026-04-16 11:10 0.35658 9.45521 3128 ft 263 kts 157°
2026-04-16 11:11 0.33966 9.46214 3423 ft 263 kts 157°
2026-04-16 11:11 0.32267 9.46910 3745 ft 264 kts 157°
2026-04-16 11:11 0.30561 9.47607 4070 ft 266 kts 156°
2026-04-16 11:11 0.28843 9.48311 4406 ft 267 kts 157°
2026-04-16 11:12 0.27122 9.49014 4745 ft 268 kts 157°
2026-04-16 11:12 0.25390 9.49720 5075 ft 269 kts 156°
2026-04-16 11:12 0.23657 9.50430 5409 ft 270 kts 156°
2026-04-16 11:12 0.21914 9.51143 5748 ft 271 kts 156°
2026-04-16 11:13 0.20163 9.51860 6089 ft 272 kts 156°
2026-04-16 11:13 0.18410 9.52576 6422 ft 274 kts 156°
2026-04-16 11:13 0.16645 9.53298 6746 ft 274 kts 156°
2026-04-16 11:13 0.14893 9.54013 7070 ft 275 kts 156°
2026-04-16 11:14 0.13111 9.54742 7399 ft 278 kts 156°
2026-04-16 11:14 0.11322 9.55474 7731 ft 278 kts 156°
2026-04-16 11:14 0.09521 9.56210 8066 ft 280 kts 155°
2026-04-16 11:14 0.07712 9.56950 8406 ft 281 kts 155°
2026-04-16 11:15 0.05892 9.57694 8748 ft 283 kts 155°
2026-04-16 11:15 0.04063 9.58442 9096 ft 284 kts 155°
2026-04-16 11:15 0.02223 9.59194 9448 ft 286 kts 155°
2026-04-16 11:15 0.00399 9.59940 9793 ft 287 kts 155°
2026-04-16 11:16 -0.01453 9.60698 10116 ft 288 kts 155°
2026-04-16 11:16 -0.03308 9.61456 10437 ft 289 kts 155°
2026-04-16 11:16 -0.05172 9.62217 10762 ft 290 kts 155°
2026-04-16 11:16 -0.07050 9.62985 11091 ft 292 kts 155°
2026-04-16 11:17 -0.08933 9.63755 11422 ft 293 kts 155°
2026-04-16 11:17 -0.10828 9.64530 11760 ft 294 kts 155°
2026-04-16 11:17 -0.12728 9.65307 12097 ft 296 kts 155°
2026-04-16 11:17 -0.14637 9.66087 12440 ft 297 kts 155°
2026-04-16 11:18 -0.16559 9.66873 12787 ft 300 kts 155°
2026-04-16 11:18 -0.18470 9.67655 13133 ft 301 kts 155°
2026-04-16 11:18 -0.20421 9.68452 13490 ft 302 kts 155°
2026-04-16 11:18 -0.22374 9.69251 13826 ft 304 kts 155°
2026-04-16 11:19 -0.24342 9.70056 14139 ft 306 kts 155°
2026-04-16 11:19 -0.26316 9.70863 14459 ft 307 kts 155°
2026-04-16 11:19 -0.28268 9.71661 14775 ft 308 kts 155°
2026-04-16 11:19 -0.30251 9.72471 15100 ft 309 kts 155°
2026-04-16 11:20 -0.32248 9.73288 15431 ft 311 kts 155°
2026-04-16 11:20 -0.34252 9.74107 15764 ft 312 kts 155°
2026-04-16 11:20 -0.36268 9.74932 16100 ft 313 kts 155°
2026-04-16 11:20 -0.38294 9.75760 16440 ft 315 kts 155°
2026-04-16 11:21 -0.40333 9.76594 16784 ft 317 kts 155°
2026-04-16 11:21 -0.42378 9.77430 17132 ft 318 kts 155°
2026-04-16 11:21 -0.44438 9.78272 17485 ft 320 kts 155°
2026-04-16 11:21 -0.46478 9.79106 17835 ft 322 kts 155°
2026-04-16 11:22 -0.48558 9.79957 18190 ft 323 kts 155°
2026-04-16 11:22 -0.50644 9.80810 18499 ft 325 kts 155°
2026-04-16 11:22 -0.52740 9.81666 18808 ft 326 kts 155°
2026-04-16 11:22 -0.54847 9.82528 19124 ft 328 kts 155°
2026-04-16 11:23 -0.56969 9.83396 19444 ft 330 kts 155°
2026-04-16 11:23 -0.59105 9.84269 19762 ft 331 kts 155°
2026-04-16 11:23 -0.61248 9.85146 20089 ft 333 kts 155°
2026-04-16 11:23 -0.63405 9.86028 20415 ft 335 kts 155°
2026-04-16 11:24 -0.65541 9.86901 20740 ft 337 kts 155°
2026-04-16 11:24 -0.67716 9.87790 21077 ft 338 kts 155°
2026-04-16 11:24 -0.69903 9.88685 21417 ft 341 kts 156°
2026-04-16 11:24 -0.72102 9.89584 21759 ft 342 kts 156°
2026-04-16 11:25 -0.74318 9.90490 22108 ft 344 kts 156°
2026-04-16 11:25 -0.76539 9.91399 22464 ft 346 kts 156°
2026-04-16 11:25 -0.78774 9.92312 22817 ft 348 kts 156°
2026-04-16 11:25 -0.81026 9.93233 23181 ft 350 kts 156°
2026-04-16 11:26 -0.83291 9.94160 23528 ft 352 kts 156°
2026-04-16 11:26 -0.85562 9.95088 23827 ft 354 kts 156°
2026-04-16 11:26 -0.87854 9.96026 24132 ft 355 kts 156°
2026-04-16 11:26 -0.90146 9.96963 24440 ft 357 kts 156°
2026-04-16 11:27 -0.92453 9.97907 24750 ft 359 kts 156°
2026-04-16 11:27 -0.94771 9.98854 25064 ft 361 kts 156°
2026-04-16 11:27 -0.97075 9.99797 25381 ft 363 kts 156°
2026-04-16 11:27 -0.99418 10.00755 25700 ft 364 kts 156°
2026-04-16 11:28 -1.01773 10.01718 26026 ft 367 kts 156°
2026-04-16 11:28 -1.04144 10.02688 26356 ft 369 kts 156°
2026-04-16 11:28 -1.06521 10.03660 26686 ft 370 kts 156°
2026-04-16 11:28 -1.08918 10.04641 27024 ft 373 kts 156°
2026-04-16 11:29 -1.11330 10.05627 27370 ft 375 kts 156°
2026-04-16 11:29 -1.13749 10.06617 27709 ft 377 kts 156°
2026-04-16 11:29 -1.16203 10.07621 28064 ft 383 kts 156°
2026-04-16 11:29 -1.18673 10.08631 28416 ft 383 kts 156°
2026-04-16 11:30 -1.21148 10.09643 28774 ft 386 kts 156°
2026-04-16 11:30 -1.23610 10.10650 29134 ft 389 kts 156°
2026-04-16 11:30 -1.26122 10.11678 29504 ft 390 kts 156°
2026-04-16 11:30 -1.28649 10.12711 29874 ft 393 kts 156°
2026-04-16 11:31 -1.31197 10.13754 30203 ft 396 kts 156°
2026-04-16 11:31 -1.33763 10.14804 30520 ft 397 kts 156°
2026-04-16 11:31 -1.36321 10.15850 30841 ft 398 kts 156°
2026-04-16 11:31 -1.38860 10.16889 31163 ft 400 kts 156°
2026-04-16 11:32 -1.41442 10.17945 31492 ft 402 kts 156°
2026-04-16 11:32 -1.44043 10.19009 31825 ft 404 kts 156°
2026-04-16 11:32 -1.46648 10.20075 32163 ft 406 kts 156°
2026-04-16 11:32 -1.49270 10.21148 32506 ft 408 kts 156°
2026-04-16 11:33 -1.51905 10.22225 32848 ft 410 kts 156°
2026-04-16 11:33 -1.54556 10.23310 33199 ft 414 kts 156°
2026-04-16 11:33 -1.57232 10.24406 33556 ft 416 kts 156°
2026-04-16 11:33 -1.59916 10.25504 33907 ft 417 kts 156°
2026-04-16 11:34 -1.62607 10.26605 34222 ft 419 kts 156°
2026-04-16 11:34 -1.65310 10.27711 34536 ft 421 kts 156°
2026-04-16 11:34 -1.68027 10.28823 34856 ft 422 kts 156°
2026-04-16 11:34 -1.70752 10.29938 35180 ft 424 kts 156°
2026-04-16 11:35 -1.73489 10.31058 35504 ft 426 kts 156°
2026-04-16 11:35 -1.76235 10.32182 35833 ft 427 kts 156°
2026-04-16 11:35 -1.78998 10.33313 36167 ft 428 kts 157°
2026-04-16 11:35 -1.81722 10.34428 36504 ft 429 kts 157°
2026-04-16 11:36 -1.84483 10.35558 36835 ft 429 kts 157°
2026-04-16 11:36 -1.87255 10.36693 37185 ft 430 kts 157°
2026-04-16 11:36 -1.90028 10.37828 37533 ft 430 kts 158°
2026-04-16 11:36 -1.92793 10.38960 37884 ft 429 kts 158°
2026-04-16 11:37 -1.95555 10.40090 38245 ft 428 kts 158°
2026-04-16 11:37 -1.98307 10.41217 38594 ft 427 kts 158°
2026-04-16 11:37 -2.01061 10.42344 38897 ft 426 kts 158°
2026-04-16 11:38 -2.06589 10.44607 38991 ft 438 kts 158°
2026-04-16 11:38 -2.12315 10.46952 39005 ft 451 kts 158°
2026-04-16 11:39 -2.18136 10.49336 38996 ft 451 kts 158°
2026-04-16 11:39 -2.23938 10.51711 38998 ft 450 kts 158°
2026-04-16 11:40 -2.29736 10.54086 39002 ft 450 kts 158°
2026-04-16 11:40 -2.35503 10.56448 38998 ft 451 kts 158°
2026-04-16 11:41 -2.41326 10.58834 38999 ft 453 kts 158°
2026-04-16 11:41 -2.47166 10.61226 38996 ft 453 kts 158°
2026-04-16 11:42 -2.53014 10.63622 38999 ft 453 kts 158°
2026-04-16 11:42 -2.58840 10.66009 38994 ft 453 kts 158°
2026-04-16 11:43 -2.64668 10.68397 38995 ft 451 kts 158°
2026-04-16 11:43 -2.70485 10.70781 38994 ft 453 kts 158°
2026-04-16 11:44 -2.76316 10.73171 38993 ft 452 kts 158°
2026-04-16 11:44 -2.82153 10.75563 38994 ft 454 kts 158°
2026-04-16 11:45 -2.87953 10.77941 38994 ft 451 kts 158°
2026-04-16 11:45 -2.93781 10.80331 38996 ft 452 kts 158°
2026-04-16 11:46 -2.99590 10.82713 38995 ft 452 kts 158°
2026-04-16 11:46 -3.05433 10.85109 38998 ft 454 kts 158°
2026-04-16 11:47 -3.10291 10.87101 38998 ft 453 kts 158°
2026-04-16 11:47 -3.16135 10.89498 39000 ft 453 kts 158°
2026-04-16 11:48 -3.21976 10.91895 39001 ft 453 kts 158°
2026-04-16 11:48 -3.27823 10.94293 39002 ft 454 kts 158°
2026-04-16 11:49 -3.33665 10.96691 38997 ft 454 kts 158°
2026-04-16 11:49 -3.39472 10.99073 38994 ft 453 kts 158°
2026-04-16 11:50 -3.45324 11.01476 38992 ft 454 kts 158°
2026-04-16 11:50 -3.51158 11.03870 38995 ft 453 kts 158°
2026-04-16 11:51 -3.56987 11.06264 38995 ft 452 kts 158°
2026-04-16 11:51 -3.62814 11.08656 38993 ft 453 kts 158°
2026-04-16 11:52 -3.68609 11.11036 38990 ft 452 kts 158°
2026-04-16 11:52 -3.74442 11.13432 38994 ft 454 kts 158°
2026-04-16 11:53 -3.80296 11.15836 38986 ft 454 kts 158°
2026-04-16 11:53 -3.86132 11.18234 38983 ft 453 kts 158°
2026-04-16 11:54 -3.91975 11.20635 38984 ft 453 kts 158°
2026-04-16 11:54 -3.97807 11.23032 38984 ft 453 kts 158°
2026-04-16 11:55 -4.03611 11.25417 38987 ft 453 kts 158°
2026-04-16 11:55 -4.09459 11.27821 38990 ft 453 kts 158°
2026-04-16 11:56 -4.15302 11.30224 38988 ft 453 kts 158°
2026-04-16 11:56 -4.21129 11.32620 38987 ft 450 kts 158°
2026-04-16 11:57 -4.26941 11.35011 38988 ft 454 kts 158°
2026-04-16 11:57 -4.32732 11.37393 38981 ft 452 kts 158°
2026-04-16 11:58 -4.38574 11.39796 38986 ft 453 kts 158°
2026-04-16 11:58 -4.44380 11.42185 38982 ft 452 kts 158°
2026-04-16 11:59 -4.50203 11.44581 38982 ft 450 kts 158°
2026-04-16 11:59 -4.55989 11.46964 38980 ft 450 kts 157°
2026-04-16 12:00 -4.61791 11.49352 38982 ft 451 kts 157°
2026-04-16 12:00 -4.67591 11.51741 38981 ft 450 kts 157°
2026-04-16 12:01 -4.73392 11.54130 38980 ft 450 kts 157°
2026-04-16 12:01 -4.79157 11.56505 38985 ft 450 kts 157°
2026-04-16 12:02 -4.87849 11.60086 38980 ft 451 kts 158°
2026-04-16 12:02 -4.93684 11.62491 38977 ft 453 kts 158°
2026-04-16 12:03 -4.99511 11.64893 38976 ft 452 kts 158°
2026-04-16 12:03 -5.05328 11.67291 38975 ft 452 kts 158°
2026-04-16 12:04 -5.11150 11.69692 38982 ft 453 kts 158°
2026-04-16 12:04 -5.16993 11.72101 38987 ft 454 kts 158°
2026-04-16 12:05 -5.22805 11.74499 38980 ft 454 kts 158°
2026-04-16 12:05 -5.28636 11.76905 38979 ft 452 kts 158°
2026-04-16 12:06 -5.34444 11.79302 38978 ft 451 kts 158°
2026-04-16 12:06 -5.40255 11.81701 38976 ft 451 kts 158°
2026-04-16 12:07 -5.46062 11.84098 38974 ft 451 kts 158°
2026-04-16 12:07 -5.51880 11.86501 38975 ft 452 kts 158°
2026-04-16 12:08 -5.57662 11.88889 38970 ft 452 kts 158°
2026-04-16 12:08 -5.63476 11.91291 38973 ft 450 kts 158°
2026-04-16 12:09 -5.69268 11.93684 38971 ft 449 kts 158°
2026-04-16 12:09 -5.75056 11.96076 38969 ft 450 kts 158°
2026-04-16 12:10 -5.80844 11.98469 38965 ft 450 kts 158°
2026-04-16 12:10 -5.86636 12.00864 38971 ft 450 kts 158°
2026-04-16 12:11 -5.92402 12.03249 38974 ft 450 kts 158°
2026-04-16 12:11 -5.98198 12.05646 38974 ft 451 kts 158°
2026-04-16 12:12 -6.04005 12.08050 38974 ft 451 kts 158°
2026-04-16 12:12 -6.09814 12.10453 38972 ft 450 kts 158°
2026-04-16 12:13 -6.15603 12.12850 38974 ft 449 kts 158°
2026-04-16 12:13 -6.21396 12.15248 38972 ft 450 kts 158°
2026-04-16 12:14 -6.27155 12.17634 38975 ft 451 kts 158°
2026-04-16 12:14 -6.32953 12.20036 38976 ft 451 kts 158°
2026-04-16 12:15 -6.38758 12.22441 38977 ft 451 kts 158°
2026-04-16 12:15 -6.44579 12.24854 38977 ft 451 kts 158°
2026-04-16 12:16 -6.50383 12.27260 38975 ft 451 kts 158°
2026-04-16 12:16 -6.56174 12.29661 38976 ft 450 kts 158°
2026-04-16 12:17 -6.61967 12.32064 38973 ft 450 kts 158°
2026-04-16 12:17 -6.67781 12.34476 38977 ft 452 kts 158°
2026-04-16 12:18 -6.73565 12.36876 38970 ft 453 kts 158°
2026-04-16 12:18 -6.79393 12.39295 38969 ft 452 kts 158°
2026-04-16 12:19 -6.85207 12.41709 38972 ft 452 kts 158°
2026-04-16 12:19 -6.91013 12.44121 38971 ft 452 kts 158°
2026-04-16 12:20 -6.96832 12.46538 38971 ft 451 kts 158°
2026-04-16 12:20 -7.02640 12.48950 38970 ft 451 kts 158°
2026-04-16 12:21 -7.08415 12.51347 38970 ft 449 kts 158°
2026-04-16 12:21 -7.14191 12.53746 38970 ft 449 kts 158°
2026-04-16 12:22 -7.19986 12.56152 38972 ft 450 kts 158°
2026-04-16 12:22 -7.25776 12.58558 38974 ft 450 kts 158°
2026-04-16 12:23 -7.31566 12.60964 38976 ft 450 kts 158°
2026-04-16 12:23 -7.37353 12.63370 38977 ft 450 kts 158°
2026-04-16 12:24 -7.43108 12.65763 38971 ft 451 kts 158°
2026-04-16 12:24 -7.48957 12.68196 38975 ft 456 kts 158°
2026-04-16 12:25 -7.54789 12.70622 38970 ft 452 kts 158°
2026-04-16 12:25 -7.60629 12.73059 38970 ft 455 kts 156°
2026-04-16 12:26 -7.66166 12.76155 38972 ft 456 kts 150°
2026-04-16 12:26 -7.71680 12.79302 38973 ft 452 kts 152°
2026-04-16 12:27 -7.77165 12.82398 38971 ft 453 kts 151°
2026-04-16 12:27 -7.82621 12.85510 38974 ft 453 kts 151°
2026-04-16 12:28 -7.88126 12.88627 38973 ft 454 kts 151°
2026-04-16 12:28 -7.93632 12.91762 38973 ft 454 kts 151°
2026-04-16 12:29 -7.99128 12.94882 38972 ft 453 kts 151°
2026-04-16 12:29 -8.04609 12.98000 38970 ft 452 kts 151°
2026-04-16 12:30 -8.10069 13.01104 38965 ft 452 kts 151°
2026-04-16 12:30 -8.15554 13.04225 38966 ft 454 kts 151°
2026-04-16 12:31 -8.21069 13.07364 38970 ft 455 kts 151°
2026-04-16 12:31 -8.26591 13.10506 38970 ft 455 kts 151°
2026-04-16 12:32 -8.32104 13.13646 38967 ft 455 kts 151°
2026-04-16 12:32 -8.37617 13.16787 38969 ft 455 kts 151°
2026-04-16 12:33 -8.43085 13.19903 38969 ft 454 kts 151°
2026-04-16 12:33 -8.48580 13.23034 38968 ft 454 kts 151°
2026-04-16 12:34 -8.53183 13.25659 38975 ft 457 kts 151°
2026-04-16 12:34 -8.58712 13.28812 38974 ft 455 kts 151°
2026-04-16 12:35 -8.64236 13.31965 38976 ft 456 kts 151°
2026-04-16 12:35 -8.69766 13.35120 38976 ft 455 kts 151°
2026-04-16 12:36 -8.72587 13.36570 38988 ft 455 kts 162°
2026-04-16 12:36 -8.75651 13.37379 39002 ft 456 kts 174°
2026-04-16 12:36 -8.78822 13.37472 39007 ft 457 kts 187°
2026-04-16 12:36 -8.81891 13.36856 39009 ft 456 kts 200°
2026-04-16 12:37 -8.84779 13.35550 39008 ft 454 kts 213°
2026-04-16 12:37 -8.87296 13.33629 39011 ft 455 kts 226°
2026-04-16 12:37 -8.89325 13.31184 39013 ft 455 kts 239°
2026-04-16 12:37 -8.90761 13.28345 39015 ft 454 kts 251°
2026-04-16 12:38 -8.91564 13.25264 39015 ft 453 kts 264°
2026-04-16 12:38 -8.91664 13.22083 39013 ft 453 kts 276°
2026-04-16 12:38 -8.91059 13.18969 39012 ft 453 kts 289°
2026-04-16 12:38 -8.89777 13.16059 39012 ft 453 kts 302°
2026-04-16 12:39 -8.85832 13.11068 38975 ft 456 kts 313°
2026-04-16 12:39 -8.81299 13.06501 38978 ft 464 kts 315°
2026-04-16 12:40 -8.78902 13.04396 38984 ft 461 kts 326°
2026-04-16 12:40 -8.76093 13.02825 38995 ft 462 kts 339°
2026-04-16 12:40 -8.73009 13.01908 38996 ft 464 kts 352°
2026-04-16 12:40 -8.69780 13.01689 38993 ft 464 kts
2026-04-16 12:41 -8.66595 13.02181 38992 ft 464 kts 17°
2026-04-16 12:41 -8.63592 13.03359 38991 ft 463 kts 30°
2026-04-16 12:41 -8.60917 13.05164 38988 ft 462 kts 42°
2026-04-16 12:41 -8.58703 13.07504 38996 ft 461 kts 55°
2026-04-16 12:42 -8.57046 13.10273 38996 ft 460 kts 68°
2026-04-16 12:42 -8.56028 13.13333 38997 ft 459 kts 79°
2026-04-16 12:42 -8.55046 13.19720 38975 ft 460 kts 81°
2026-04-16 12:43 -8.53704 13.26034 38976 ft 460 kts 73°
2026-04-16 12:43 -8.51453 13.32047 38976 ft 460 kts 63°
2026-04-16 12:44 -8.48102 13.37558 38983 ft 461 kts 49°
2026-04-16 12:44 -8.43346 13.41951 39009 ft 465 kts 30°
2026-04-16 12:45 -8.40425 13.43354 39004 ft 465 kts 17°
2026-04-16 12:45 -8.37273 13.44064 39004 ft 466 kts
2026-04-16 12:45 -8.34039 13.44051 39004 ft 465 kts 351°
2026-04-16 12:45 -8.30892 13.43316 39003 ft 465 kts 338°
2026-04-16 12:46 -8.28023 13.41918 39005 ft 464 kts 325°
2026-04-16 12:46 -8.25507 13.39900 39009 ft 463 kts 312°
2026-04-16 12:46 -8.23498 13.37367 39007 ft 461 kts 299°
2026-04-16 12:46 -8.22103 13.34457 39001 ft 460 kts 286°
2026-04-16 12:47 -8.21389 13.31311 38999 ft 458 kts 273°
2026-04-16 12:47 -8.21392 13.28099 38999 ft 456 kts 260°
2026-04-16 12:47 -8.22102 13.24996 38999 ft 454 kts 248°
2026-04-16 12:47 -8.23458 13.22173 38998 ft 453 kts 235°
2026-04-16 12:48 -8.25429 13.19693 38995 ft 453 kts 222°
2026-04-16 12:48 -8.27894 13.17729 38998 ft 452 kts 209°
2026-04-16 12:48 -8.30743 13.16369 38997 ft 452 kts 197°
2026-04-16 12:48 -8.33818 13.15690 38997 ft 452 kts 184°
2026-04-16 12:49 -8.40076 13.15589 38979 ft 452 kts 189°
2026-04-16 12:49 -8.43129 13.14858 39004 ft 453 kts 202°
2026-04-16 12:49 -8.45950 13.13449 39005 ft 453 kts 211°
2026-04-16 12:50 -8.48750 13.11975 38983 ft 452 kts 199°
2026-04-16 12:50 -8.51775 13.11137 38996 ft 453 kts 187°
2026-04-16 12:50 -8.54901 13.10996 38967 ft 441 kts 173°
2026-04-16 12:50 -8.57866 13.11502 38297 ft 432 kts 161°
2026-04-16 12:51 -8.60616 13.12701 37319 ft 429 kts 147°
2026-04-16 12:51 -8.62959 13.14537 36421 ft 425 kts 133°
2026-04-16 12:51 -8.64845 13.16773 35510 ft 423 kts 126°
2026-04-16 12:51 -8.66525 13.19213 34609 ft 422 kts 123°
2026-04-16 12:52 -8.68095 13.21715 33722 ft 420 kts 121°
2026-04-16 12:52 -8.69612 13.24228 32747 ft 418 kts 121°
2026-04-16 12:52 -8.71102 13.26739 31810 ft 415 kts 121°
2026-04-16 12:52 -8.72576 13.29243 30891 ft 412 kts 121°
2026-04-16 12:53 -8.74032 13.31726 30013 ft 409 kts 121°
2026-04-16 12:53 -8.75475 13.34191 28998 ft 406 kts 120°
2026-04-16 12:53 -8.76905 13.36634 28006 ft 402 kts 121°
2026-04-16 12:53 -8.78320 13.39055 27041 ft 398 kts 120°
2026-04-16 12:54 -8.79720 13.41451 26107 ft 394 kts 121°
2026-04-16 12:54 -8.81107 13.43830 25191 ft 390 kts 120°
2026-04-16 12:54 -8.82464 13.46155 24337 ft 386 kts 120°
2026-04-16 12:54 -8.83822 13.48483 23483 ft 382 kts 120°
2026-04-16 12:55 -8.85166 13.50787 22485 ft 378 kts 120°
2026-04-16 12:55 -8.86495 13.53065 21503 ft 374 kts 120°
2026-04-16 12:55 -8.87808 13.55313 20554 ft 369 kts 120°
2026-04-16 12:55 -8.89113 13.57544 19631 ft 365 kts 120°
2026-04-16 12:56 -8.90404 13.59739 18742 ft 360 kts 120°
2026-04-16 12:56 -8.91684 13.61904 17813 ft 356 kts 120°
2026-04-16 12:56 -8.92949 13.64034 16825 ft 351 kts 120°
2026-04-16 12:56 -8.93857 13.66283 15889 ft 343 kts 97°
2026-04-16 12:57 -8.93777 13.68652 15021 ft 335 kts 73°
2026-04-16 12:57 -8.92762 13.70727 14170 ft 329 kts 49°
2026-04-16 12:57 -8.90994 13.72133 13305 ft 324 kts 24°
2026-04-16 12:57 -8.88840 13.72584 12415 ft 321 kts 357°
2026-04-16 12:58 -8.86711 13.71987 11529 ft 319 kts 330°
2026-04-16 12:58 -8.85044 13.70525 10645 ft 317 kts 312°
2026-04-16 12:58 -8.83698 13.68766 9758 ft 316 kts 307°
2026-04-16 12:58 -8.82456 13.66931 8780 ft 314 kts 305°
2026-04-16 12:59 -8.81263 13.65093 7829 ft 311 kts 305°
2026-04-16 12:59 -8.80092 13.63265 6902 ft 308 kts 304°
2026-04-16 12:59 -8.78930 13.61454 5981 ft 306 kts 304°
2026-04-16 13:00 -8.76643 13.57915 4091 ft 298 kts 304°
2026-04-16 13:00 -8.75505 13.56187 3312 ft 289 kts 304°
2026-04-16 13:00 -8.74429 13.54553 2967 ft 264 kts 299°
2026-04-16 13:00 -8.74079 13.52890 2954 ft 229 kts 262°
2026-04-16 13:01 -8.74185 13.51388 2838 ft 207 kts 284°
2026-04-16 13:01 -8.73642 13.50092 2819 ft 188 kts 296°
2026-04-16 13:01 -8.73159 13.48818 2903 ft 201 kts 289°
2026-04-16 13:01 -8.72716 13.47492 2615 ft 198 kts 288°
2026-04-16 13:02 -8.72276 13.46180 2311 ft 197 kts 288°
2026-04-16 13:02 -8.71835 13.44871 1997 ft 196 kts 288°
2026-04-16 13:02 -8.71574 13.43555 1806 ft 187 kts 268°
2026-04-16 13:02 -8.71781 13.42293 1660 ft 178 kts 255°
2026-04-16 13:03 -8.72169 13.41108 1562 ft 176 kts 248°
2026-04-16 13:03 -8.72636 13.39965 1487 ft 175 kts 244°
2026-04-16 13:03 -8.73194 13.38878 1402 ft 174 kts 237°
2026-04-16 13:03 -8.73971 13.37959 1306 ft 171 kts 225°
2026-04-16 13:04 -8.74788 13.37070 1242 ft 174 kts 226°
2026-04-16 13:04 -8.75608 13.36173 1171 ft 173 kts 226°
2026-04-16 13:04 -8.76432 13.35272 1096 ft 176 kts 226°
2026-04-16 13:04 -8.77249 13.34379 1035 ft 171 kts 226°
2026-04-16 13:05 -8.78059 13.33491 972 ft 172 kts 226°
2026-04-16 13:05 -8.78861 13.32624 980 ft 174 kts 226°
2026-04-16 13:05 -8.79683 13.31736 951 ft 168 kts 224°
2026-04-16 13:05 -8.80303 13.30702 991 ft 173 kts 246°
2026-04-16 13:06 -8.80452 13.29491 820 ft 168 kts 269°
2026-04-16 13:06 -8.80763 13.28421 890 ft 166 kts 226°
2026-04-16 13:06 -8.81640 13.27631 926 ft 165 kts 215°
2026-04-16 13:06 -8.82487 13.26847 935 ft 166 kts 223°
2026-04-16 13:07 -8.83305 13.26031 888 ft 165 kts 225°
2026-04-16 13:07 -8.84083 13.25171 807 ft 166 kts 226°
2026-04-16 13:07 -8.84893 13.24334 622 ft 167 kts 225°
2026-04-16 13:07 -8.85681 13.23507 383 ft 165 kts 225°
2026-04-16 13:08 -8.86446 13.22704 250 ft 142 kts 227°
2026-04-16 13:08 -8.86918 13.22213 245 ft 50 kts 224°
2026-04-16 13:08 -8.86987 13.22144 245 ft 0 kts 228°